Wind_Speed
9 11 13 17 19 21 20 18 16 12 10 9 6 4 2 4 5 5 8 2 3 6 8 10 7 10 10 5 9 3 4 8 13 12 4 7 5 4 1 7 5 5 4 17 29
9 11 13 14 15 18 20 19 17 12 10 7 5 3 1 3 6 10 8 7 8 7 7 13 7 10 5 5 5 5 4 10 9 9 4 6 7 6 3 9 4 7 17 28 28
9 10 11 12 13 15 18 21 20 13 9 6 4 3 0 2 7 1 1 6 10 8 8 11 12 11 9 8 8 6 5 9 3 5 7 8 1 7 4 5 8 12 15 19 22
10 10 11 11 12 13 16 18 19 15 11 6 3 2 2 2 1 4 7 6 5 8 6 10 7 7 6 11 12 7 11 11 4 5 4 4 1 3 5 3 4 18 19 17 16
10 11 10 10 10 12 15 16 17 14 10 7 3 1 1 5 3 6 11 8 4 8 6 8 8 8 12 9 8 15 10 13 6 3 5 5 3 3 5 7 7 17 17 14 12
8 10 10 10 10 11 13 13 14 13 9 7 4 2 4 3 7 10 10 2 4 8 6 12 8 9 7 14 13 9 11 8 5 6 4 3 2 2 4 9 10 11 13 12 11
6 7 9 9 10 10 11 11 13 11 8 6 3 5 4 3 7 8 6 4 5 1 3 13 8 9 7 8 10 7 9 3 5 5 5 4 3 6 9 8 8 10 10 10 11
5 5 7 8 9 9 9 9 10 9 4 5 2 5 4 2 3 5 4 3 2 1 5 8 5 7 7 10 4 4 5 5 8 9 5 5 3 9 9 8 9 8 7 8 8
6 4 5 7 8 9 8 8 5 5 5 3 5 3 2 3 2 6 4 1 3 2 5 4 4 4 3 5 3 6 6 9 7 11 6 6 1 7 7 8 9 9 9 8 7
7 5 5 5 6 8 8 8 6 6 5 6 7 4 3 3 4 2 3 3 1 1 4 3 4 4 4 5 6 8 9 10 7 8 6 6 4 2 6 6 8 9 8 9 9
5 6 5 5 4 6 8 6 3 3 8 3 5 5 2 1 0 0 2 3 1 1 3 6 3 4 9 9 13 4 9 10 5 7 6 8 8 8 5 3 9 9 12 9 9
7 8 5 3 3 3 5 5 4 2 4 1 3 2 1 3 2 3 2 2 2 1 7 4 5 9 8 6 9 4 9 9 6 5 5 8 9 8 11 7 8 9 9 11 9
8 8 4 1 1 2 3 4 3 6 4 4 1 2 2 3 4 4 3 2 3 3 6 4 6 2 3 4 6 7 7 8 2 7 3 2 7 8 9 8 8 7 8 9 12
8 7 4 3 2 1 1 3 3 5 3 3 2 2 3 3 1 1 1 1 3 2 4 4 1 4 2 6 7 8 7 5 4 5 3 7 4 9 11 13 13 10 8 9 11
7 5 3 4 3 3 4 4 3 2 3 4 2 1 1 4 2 4 1 3 5 1 2 2 5 3 5 3 6 2 6 5 4 4 2 4 1 7 10 7 9 9 9 6 7
4 4 3 3 2 3 5 4 2 2 3 2 1 1 4 3 3 4 3 3 2 3 4 1 1 3 3 1 3 4 3 1 2 2 1 6 6 4 4 7 7 8 8 8 9
2 4 3 3 2 3 2 3 2 2 2 3 2 3 6 1 4 4 4 4 2 2 2 3 3 3 2 3 1 3 1 1 2 2 4 3 3 8 3 7 7 10 9 8 8
1 3 5 0 2 1 1 2 4 0 3 1 2 7 3 2 2 4 3 5 4 3 4 3 2 3 0 2 2 5 1 3 3 4 4 2 5 6 5 8 8 9 9 8 7
1 3 2 6 2 1 3 2 3 5 3 7 6 4 4 4 2 3 7 3 3 5 2 3 2 2 2 3 1 1 2 1 2 5 1 5 5 2 6 6 7 8 8 8 8
2 3 2 5 1 2 2 1 2 3 5 3 4 2 5 3 2 4 5 4 3 2 4 4 2 1 4 1 3 2 3 2 1 2 3 4 3 5 6 7 7 8 8 8 7
0 2 0 0 0 2 2 2 2 2 3 3 6 5 6 4 3 5 2 2 5 2 4 4 3 1 1 7 6 3 2 3 0 2 2 1 5 3 6 8 9 9 9 8 8
4 2 1 3 2 2 2 3 1 2 2 3 2 5 3 5 6 4 5 4 4 4 3 2 3 3 3 3 4 3 1 4 3 4 2 4 5 4 3 6 8 9 9 8 8
2 1 1 2 3 2 2 3 2 2 2 1 3 1 2 3 3 3 5 1 1 3 2 5 4 3 1 1 2 3 4 3 3 3 4 1 5 2 5 4 8 9 8 8 7
2 1 1 2 2 1 3 1 2 2 3 2 3 2 4 4 5 3 3 3 1 2 1 1 3 3 2 1 1 3 4 7 6 3 4 7 4 7 8 7 8 9 9 8 7
2 0 2 2 2 2 2 1 3 3 3 3 3 5 3 4 4 3 1 4 4 4 3 2 4 2 5 6 5 4 5 8 9 12 4 1 5 4 8 9 8 9 9 8 8
2 2 1 3 1 3 4 4 2 1 3 4 4 3 4 4 2 4 5 3 1 4 2 3 3 3 5 4 4 6 8 10 11 13 12 11 16 6 6 9 8 9 9 8 8
2 2 1 2 3 2 3 3 2 3 5 4 3 2 7 5 4 5 5 6 5 4 6 4 3 1 4 1 4 7 14 14 5 4 8 8 5 6 4 7 9 9 9 9 8
Wind_Direction
356 358 2 8 17 16 10 1 351 344 330 332 336 341 264 221 212 222 245 248 322 310 291 297 273 254 238 260 239 282 242 223 227 243 251 109 119 22 359 113 76 43 20 133 143
335 348 356 2 12 14 13 10 4 349 340 335 329 337 302 237 226 239 270 260 292 285 285 297 269 223 226 218 205 214 219 219 224 246 223 141 151 122 153 116 89 67 91 125 136
315 327 341 349 357 5 14 15 10 5 352 336 339 314 313 228 262 137 21 269 271 250 274 293 300 277 230 236 213 199 232 248 334 64 14 139 124 146 157 155 173 149 141 141 148
301 310 323 332 344 356 5 15 16 15 5 354 322 338 256 246 40 82 352 317 283 220 253 265 265 263 230 232 215 262 225 262 123 317 348 76 146 89 285 77 22 151 148 150 161
304 302 310 319 330 343 355 8 11 10 15 18 6 54 316 229 51 5 349 313 232 199 229 251 246 236 248 222 221 227 258 236 85 171 296 37 5 83 158 97 77 130 142 158 170
301 304 304 310 319 331 339 354 2 4 15 33 47 101 294 275 337 358 355 5 187 193 230 251 259 285 286 263 218 188 246 243 126 173 231 141 135 66 149 113 113 137 156 164 176
291 299 300 302 312 326 335 344 351 359 10 29 31 348 279 267 327 348 359 41 159 121 312 264 345 312 335 259 275 232 219 209 136 181 191 192 219 208 133 129 150 159 165 164 179
272 299 300 302 310 318 329 345 354 4 36 7 7 320 292 316 326 328 31 65 58 168 285 344 313 302 285 328 303 220 264 178 185 168 163 178 239 176 146 161 169 169 153 159 171
297 291 297 306 315 317 319 336 340 357 359 351 333 335 50 315 315 8 13 22 157 242 277 284 263 252 228 260 189 234 194 228 156 181 134 183 190 109 150 185 178 166 162 164 180
315 300 298 306 315 316 317 319 293 281 294 272 274 283 238 19 3 4 28 102 269 168 247 230 233 240 236 225 203 197 239 203 168 186 152 189 273 151 155 214 185 167 171 167 177
347 320 296 296 318 322 331 317 220 211 233 14 352 352 55 47 288 61 106 122 40 288 254 212 213 226 234 234 247 273 206 248 171 175 142 195 217 183 182 214 221 187 171 175 174
357 338 312 283 318 348 348 308 40 5 308 114 274 229 256 311 241 130 211 215 195 270 250 153 248 229 293 279 264 301 290 246 44 140 165 207 224 171 174 201 220 185 180 165 167
357 350 338 290 7 56 337 40 333 337 265 150 29 342 72 258 3 114 229 110 243 237 247 263 6 29 296 294 306 257 263 266 161 152 243 354 254 213 196 182 213 217 181 160 173
4 12 33 90 51 329 103 317 350 323 281 89 176 117 195 256 176 87 245 289 231 251 274 239 237 300 269 283 231 248 313 355 124 113 202 169 253 206 213 198 194 197 212 178 173
7 25 86 27 353 307 331 325 317 267 59 354 67 19 329 288 119 169 354 253 314 348 295 344 338 211 247 337 340 15 338 308 318 220 357 212 73 255 199 202 204 201 193 190 150
15 36 75 32 3 298 317 327 302 257 10 32 302 292 255 190 167 136 226 219 329 296 224 33 104 323 10 349 325 325 256 197 336 28 23 256 156 276 175 181 185 173 146 137 124
22 30 18 17 351 330 355 277 320 28 170 1 339 348 323 166 194 206 196 201 243 42 300 165 150 111 291 245 152 275 238 31 14 8 220 328 50 236 137 29 117 120 107 103 104
89 8 4 331 318 357 301 257 32 147 28 116 251 285 244 135 205 202 255 253 207 254 282 156 300 179 100 42 348 226 109 129 211 184 217 134 225 249 79 80 60 78 102 107 127
70 352 288 307 326 18 270 27 349 7 352 334 290 255 205 165 197 223 212 251 62 198 302 317 147 128 346 5 28 171 184 37 315 219 94 199 245 102 118 107 113 109 113 126 128
43 264 139 320 300 292 272 99 25 352 330 283 296 25 321 48 202 179 180 6 106 9 11 326 292 224 122 257 241 295 295 113 317 300 264 221 203 217 183 161 130 141 134 128 116
3 267 311 305 207 250 24 48 342 84 358 325 342 307 328 336 346 292 326 60 25 92 322 328 249 159 103 204 185 168 199 206 200 200 252 351 264 348 188 165 157 149 134 136 134
294 270 190 138 293 217 38 345 299 358 157 292 264 281 301 328 305 290 7 73 15 350 280 57 312 243 190 57 22 341 272 167 142 292 258 172 274 94 80 126 135 134 141 139 121
265 6 223 155 38 9 184 174 270 260 256 284 275 207 332 287 327 32 8 65 59 303 339 359 260 307 326 345 10 237 204 229 63 55 245 6 270 133 147 160 132 131 119 114 115
290 299 149 226 182 256 356 204 222 189 270 281 300 275 281 258 180 285 301 136 133 288 316 284 272 240 215 289 226 223 232 193 165 156 221 222 234 210 188 167 140 133 135 136 142
227 360 111 288 138 312 173 290 281 228 223 200 232 238 298 301 291 239 234 200 181 149 229 239 264 342 278 264 249 229 260 207 216 232 219 1 235 44 178 165 161 143 140 143 143
305 333 204 272 156 242 177 217 253 155 203 182 220 307 250 249 335 306 1 250 342 181 233 155 273 350 284 251 218 263 253 247 227 239 256 276 284 146 127 105 132 150 147 151 154
341 281 171 216 194 223 218 224 185 108 217 254 266 310 261 265 338 308 302 296 277 307 211 189 220 187 271 203 294 277 235 218 216 204 207 231 227 149 143 150 159 158 156 161 158
Height
821 819 816 813 810 807 804 802 799 796 795 794 793 791 791 791 792 793 792 792 791 790 791 790 789 789 790 786 783 779 796 792 785 781 771 760 768 764 766 775 776 783 787 787 801
821 819 817 815 812 809 806 802 799 797 795 794 793 792 792 792 793 790 790 789 790 790 791 789 785 786 789 785 784 786 789 782 768 764 765 764 767 772 775 780 788 792 792 796 802
820 818 816 815 813 810 807 803 800 797 795 794 793 793 792 793 792 788 788 788 789 790 791 790 788 784 789 781 781 780 786 770 769 767 763 765 768 768 776 788 782 792 797 800 805
819 818 816 814 812 810 808 804 801 799 797 794 793 793 793 795 794 788 788 788 787 790 791 790 789 788 788 787 777 785 774 769 779 779 770 768 766 774 776 783 778 781 791 799 804
818 817 816 814 812 810 808 806 803 800 798 795 794 794 795 792 791 790 788 787 787 790 790 790 789 787 789 780 777 780 773 767 776 783 779 773 775 776 779 779 778 783 792 799 804
816 816 815 814 812 810 809 806 804 801 799 797 796 796 796 795 792 790 788 787 787 789 789 791 786 783 781 778 779 770 771 770 777 783 785 781 780 779 777 779 784 788 793 797 803
813 814 814 813 812 810 808 807 804 802 801 800 798 798 796 794 792 791 789 788 788 789 791 790 788 787 780 778 770 767 781 773 780 780 783 781 790 789 780 782 788 790 792 794 799
811 811 812 812 811 810 808 807 805 803 801 800 799 799 795 792 791 790 790 789 789 791 793 791 791 789 784 777 771 777 778 794 779 782 780 784 787 778 776 782 790 790 790 795 797
812 811 811 811 810 809 808 807 806 804 802 801 801 799 794 792 791 791 790 789 791 792 793 792 792 790 784 791 792 787 798 791 785 775 781 786 778 776 775 780 786 790 792 795 799
812 812 811 810 809 809 807 806 805 804 802 801 801 802 794 794 793 792 791 791 791 791 793 792 793 794 792 796 806 797 795 784 786 779 778 789 787 782 779 781 782 788 792 791 796
812 811 810 810 808 808 807 805 808 807 803 799 798 794 793 795 794 793 792 792 792 793 795 792 800 803 792 785 779 777 783 785 772 772 780 785 784 785 782 784 787 786 786 789 792
812 811 810 809 808 808 809 806 808 810 805 796 796 794 795 795 793 793 794 793 795 798 791 795 803 788 780 777 779 779 786 782 783 775 780 781 781 778 782 783 780 778 780 781 788
812 810 809 809 809 809 809 810 809 809 807 796 794 793 793 795 792 793 794 790 793 796 791 794 789 778 783 782 784 785 785 779 776 782 779 781 787 779 774 774 775 772 773 774 783
811 810 810 810 812 810 809 809 808 809 809 800 795 795 793 792 795 792 793 794 790 792 788 790 785 786 786 789 785 791 775 775 775 788 806 782 811 782 773 773 772 774 773 773 778
813 811 810 811 812 811 812 810 809 810 820 797 795 794 792 796 794 794 793 792 794 788 792 796 792 791 791 788 785 787 783 780 777 787 787 786 812 780 763 775 773 771 772 773 777
813 812 811 812 812 812 811 810 811 815 827 805 794 794 795 792 792 793 793 793 791 791 788 792 792 792 796 789 789 785 783 780 780 795 823 792 803 787 772 764 765 768 772 775 780
814 814 812 813 812 811 811 811 816 815 802 802 801 794 793 792 793 792 793 796 796 813 803 793 793 793 793 791 789 790 792 823 827 828 825 798 810 786 765 766 764 770 777 781 784
814 815 815 813 813 811 811 812 817 802 801 798 797 795 798 790 790 791 792 795 788 791 800 805 813 794 795 795 797 793 792 823 811 826 817 797 811 788 774 773 773 774 780 785 789
814 814 815 814 813 813 813 814 819 808 806 805 796 799 790 789 795 791 790 787 787 789 798 793 800 796 795 794 797 792 804 792 802 787 797 804 779 775 776 779 780 784 786 790 792
814 815 814 814 814 814 813 814 809 810 809 805 804 794 797 789 792 789 786 788 790 791 791 790 799 794 797 798 796 797 794 806 816 809 792 789 770 792 784 783 783 787 790 791 794
814 811 814 813 814 815 816 813 809 809 811 810 806 802 796 794 791 790 785 795 792 793 792 793 793 803 798 800 794 802 797 797 798 800 801 799 802 772 785 778 783 786 790 794 796
813 812 811 812 815 809 814 816 819 810 810 811 809 805 802 798 798 789 791 794 797 797 795 797 799 801 789 790 788 786 781 783 807 794 793 799 803 770 772 773 778 785 789 794 797
812 808 812 811 814 811 813 811 813 811 810 808 807 804 801 802 806 795 795 800 799 799 801 802 801 813 799 799 793 792 785 781 785 799 801 799 789 775 776 776 780 787 793 797 800
813 813 811 811 810 810 811 807 809 813 812 811 810 808 805 799 797 799 795 799 801 800 804 803 797 795 805 790 787 791 787 786 791 819 793 787 772 780 779 780 784 789 795 799 802
812 811 812 812 809 808 810 806 806 807 813 810 808 809 807 807 797 797 792 795 800 801 802 802 802 795 792 788 784 784 784 787 797 788 786 767 766 768 774 779 784 789 794 799 802
816 813 815 809 807 808 810 804 803 802 806 806 811 801 804 806 799 802 798 793 791 800 796 799 804 792 796 779 781 789 787 784 782 782 780 778 773 766 770 772 781 787 792 797 801
815 814 813 808 804 806 801 795 799 803 799 799 801 803 803 801 801 798 798 797 796 796 799 797 802 796 795 779 782 789 770 774 770 766 770 781 767 763 773 772 777 784 788 794 798